| time (UTC) | temp F | wind direction | speed MPH | gust MPH | rain 1hr in | rain 24hr in | rain mn in | humidity % | barometer mb |
| 20260906142904 | 81 | 0.0 | 0.0 | 0.00 | 0.00 | 0.00 | 55 | 1025.4 | |
| 20260906141904 | 80 | 0.0 | 0.0 | 0.00 | 0.00 | 0.00 | 56 | 1025.5 | |
| 20260906140905 | 79 | 0.0 | 0.0 | 0.00 | 0.00 | 0.00 | 56 | 1025.5 | |
| 20260906135904 | 78 | 0.0 | 0.0 | 0.00 | 0.00 | 0.00 | 56 | 1025.8 | |
| 20260906134909 | 77 | 0.0 | 0.0 | 0.00 | 0.00 | 0.00 | 57 | 1025.7 | |
| 20260906132904 | 77 | 0.0 | 0.0 | 0.00 | 0.00 | 0.00 | 56 | 1025.9 | |
| 20260906131904 | 76 | 0.0 | 0.0 | 0.00 | 0.00 | 0.00 | 57 | 1026.1 | |
| 20260906130903 | 76 | 0.0 | 0.0 | 0.00 | 0.00 | 0.00 | 58 | 1026.3 | |
| 20260906125904 | 75 | 0.0 | 0.0 | 0.00 | 0.00 | 0.00 | 57 | 1026.5 | |
| 20260906124904 | 75 | 0.0 | 0.0 | 0.00 | 0.00 | 0.00 | 58 | 1026.6 | |
| 20260906123905 | 73 | 0.0 | 0.0 | 0.00 | 0.00 | 0.00 | 58 | 1026.4 | |
| 20260906122904 | 74 | 0.0 | 0.0 | 0.00 | 0.00 | 0.00 | 58 | 1026.7 | |
| 20260906121904 | 75 | 0.0 | 0.0 | 0.00 | 0.00 | 0.00 | 59 | 1027.0 | |
| 20260906120904 | 74 | 0.0 | 0.0 | 0.00 | 0.00 | 0.00 | 59 | 1027.0 | |
| 20260906115905 | 74 | 0.0 | 0.0 | 0.00 | 0.00 | 0.00 | 59 | 1027.3 | |
| 20260906114904 | 73 | 0.0 | 0.0 | 0.00 | 0.00 | 0.00 | 61 | 1027.4 | |
| 20260906113905 | 72 | 0.0 | 0.0 | 0.00 | 0.00 | 0.00 | 62 | 1027.5 | |
| 20260906112904 | 72 | 0.0 | 0.0 | 0.00 | 0.00 | 0.00 | 61 | 1027.5 | |
| 20260906111909 | 72 | 0.0 | 0.0 | 0.00 | 0.00 | 0.00 | 63 | 1027.6 | |
| 20260906105904 | 71 | 0.0 | 0.0 | 0.00 | 0.00 | 0.00 | 61 | 1027.5 | |
| 20260906104905 | 71 | 0.0 | 0.0 | 0.00 | 0.00 | 0.00 | 63 | 1027.9 | |
| 20260906103910 | 70 | 0.0 | 0.0 | 0.00 | 0.00 | 0.00 | 63 | 1028.0 | |
| 20260906101904 | 70 | 0.0 | 0.0 | 0.00 | 0.00 | 0.00 | 67 | 1028.4 | |
| 20260906100903 | 69 | 0.0 | 0.0 | 0.00 | 0.00 | 0.00 | 68 | 1028.4 | |
| 20260906095904 | 68 | 0.0 | 0.0 | 0.00 | 0.00 | 0.00 | 68 | 1028.5 | |
| 20260906094905 | 67 | 0.0 | 0.0 | 0.00 | 0.00 | 0.00 | 68 | 1028.4 | |
| 20260906093904 | 67 | 0.0 | 0.0 | 0.00 | 0.00 | 0.00 | 73 | 1028.6 | |
| 20260906092904 | 67 | 0.0 | 0.0 | 0.00 | 0.00 | 0.00 | 77 | 1028.8 | |
| 20260906091904 | 66 | 0.0 | 0.0 | 0.00 | 0.00 | 0.00 | 77 | 1028.8 | |
| 20260906090905 | 67 | 0.0 | 0.0 | 0.00 | 0.00 | 0.00 | 80 | 1029.3 | |
| 20260906085904 | 65 | 0.0 | 0.0 | 0.00 | 0.00 | 0.00 | 82 | 1029.4 | |
| 20260906084904 | 65 | 0.0 | 0.0 | 0.00 | 0.00 | 0.00 | 82 | 1029.4 | |
| 20260906083903 | 64 | 0.0 | 0.0 | 0.00 | 0.00 | 0.00 | 84 | 1029.3 | |
| 20260906082903 | 63 | 0.0 | 0.0 | 0.00 | 0.00 | 0.00 | 87 | 1029.5 | |
| 20260906081904 | 63 | 0.0 | 0.0 | 0.00 | 0.00 | 0.00 | 89 | 1029.5 | |
| 20260906080904 | 62 | 0.0 | 0.0 | 0.00 | 0.00 | 0.00 | 90 | 1029.6 | |
| 20260906075908 | 61 | 0.0 | 0.0 | 0.00 | 0.00 | 0.00 | 92 | 1029.5 | |
| 20260906073904 | 60 | 0.0 | 0.0 | 0.00 | 0.00 | 0.00 | 97 | 1029.5 | |
| 20260906072905 | 59 | 0.0 | 0.0 | 0.00 | 0.00 | 0.00 | 96 | 1029.4 | |
| 20260906071904 | 59 | 0.0 | 0.0 | 0.00 | 0.00 | 0.00 | 98 | 1029.2 | |
| 20260906070904 | 59 | 0.0 | 0.0 | 0.00 | 0.00 | 0.00 | 98 | 1029.2 | |
| 20260906065904 | 58 | 0.0 | 0.0 | 0.00 | 0.00 | 0.00 | 99 | 1029.1 | |
| 20260906064909 | 57 | 0.0 | 0.0 | 0.00 | 0.00 | 0.00 | 10 | 1029.3 | |
| 20260906062904 | 56 | 0.0 | 0.0 | 0.00 | 0.00 | 0.00 | 10 | 1028.9 | |
| 20260906061904 | 56 | 0.0 | 0.0 | 0.00 | 0.00 | 0.00 | 99 | 1028.9 | |
| 20260906060904 | 56 | 0.0 | 0.0 | 0.00 | 0.00 | 0.00 | 98 | 1028.9 | |
| 20260906055905 | 56 | 0.0 | 0.0 | 0.00 | 0.00 | 0.00 | 98 | 1028.7 | |
| 20260906054904 | 55 | 0.0 | 0.0 | 0.00 | 0.00 | 0.00 | 97 | 1028.7 | |
| 20260906053904 | 55 | 0.0 | 0.0 | 0.00 | 0.00 | 0.00 | 97 | 1028.3 | |
| 20260906052904 | 55 | 0.0 | 0.0 | 0.00 | 0.00 | 0.00 | 96 | 1028.2 | |
| 20260906051905 | 55 | 0.0 | 0.0 | 0.00 | 0.00 | 0.00 | 94 | 1028.1 | |
| 20260906050909 | 55 | 0.0 | 0.0 | 0.00 | 0.00 | 0.00 | 95 | 1028.0 | |
| 20260906044904 | 55 | 0.0 | 0.0 | 0.00 | 0.00 | 0.00 | 94 | 1027.7 | |
| 20260906043904 | 55 | 0.0 | 0.0 | 0.00 | 0.00 | 0.00 | 94 | 1027.7 | |
| 20260906042904 | 55 | 0.0 | 0.0 | 0.00 | 0.00 | 0.00 | 94 | 1027.6 | |
| 20260906041904 | 55 | 0.0 | 0.0 | 0.00 | 0.00 | 0.00 | 95 | 1027.5 | |
| 20260906040904 | 55 | 0.0 | 0.0 | 0.00 | 0.00 | 0.00 | 94 | 1027.4 | |
| 20260906035904 | 55 | 0.0 | 0.0 | 0.00 | 0.00 | 0.00 | 94 | 1027.4 | |
| 20260906034904 | 55 | 0.0 | 0.0 | 0.00 | 0.00 | 0.00 | 95 | 1027.6 | |
| 20260906033909 | 55 | 0.0 | 0.0 | 0.00 | 0.00 | 0.00 | 95 | 1027.6 | |
| 20260906031904 | 56 | 0.0 | 0.0 | 0.00 | 0.00 | 0.00 | 94 | 1027.4 | |
| 20260906030905 | 56 | 0.0 | 0.0 | 0.00 | 0.00 | 0.00 | 95 | 1027.3 | |
| 20260906025904 | 56 | 0.0 | 0.0 | 0.00 | 0.00 | 0.00 | 94 | 1027.3 | |
| 20260906024904 | 56 | 0.0 | 0.0 | 0.00 | 0.00 | 0.00 | 95 | 1027.2 | |
| 20260906023909 | 56 | 0.0 | 0.0 | 0.00 | 0.00 | 0.00 | 95 | 1027.2 | |
| 20260906021905 | 56 | 0.0 | 0.0 | 0.00 | 0.00 | 0.00 | 94 | 1027.2 | |
| 20260906020904 | 57 | 0.0 | 0.0 | 0.00 | 0.00 | 0.00 | 93 | 1027.2 | |
| 20260906015908 | 57 | 0.0 | 0.0 | 0.00 | 0.00 | 0.00 | 94 | 1027.2 | |
| 20260906013904 | 57 | 0.0 | 0.0 | 0.00 | 0.00 | 0.00 | 94 | 1026.9 | |
| 20260906012904 | 57 | 0.0 | 0.0 | 0.00 | 0.00 | 0.00 | 94 | 1026.9 | |
| 20260906011904 | 57 | 0.0 | 0.0 | 0.00 | 0.00 | 0.00 | 94 | 1026.7 | |
| 20260906010904 | 57 | 0.0 | 0.0 | 0.00 | 0.00 | 0.00 | 94 | 1026.7 | |
| 20260906005909 | 58 | 0.0 | 0.0 | 0.00 | 0.00 | 0.00 | 93 | 1026.7 | |
| 20260906002904 | 58 | 0.0 | 0.0 | 0.00 | 0.00 | 0.00 | 94 | 1026.6 | |
| 20260906001909 | 58 | 0.0 | 0.0 | 0.00 | 0.00 | 0.00 | 94 | 1026.7 | |
| 20260905235905 | 58 | 0.0 | 0.0 | 0.00 | 0.00 | 0.00 | 95 | 1026.5 | |
| 20260905234905 | 58 | 0.0 | 0.0 | 0.00 | 0.00 | 0.00 | 96 | 1026.3 | |
| 20260905233904 | 58 | 0.0 | 0.0 | 0.00 | 0.00 | 0.00 | 95 | 1026.1 | |
| 20260905232904 | 58 | 0.0 | 0.0 | 0.00 | 0.00 | 0.00 | 94 | 1026.0 | |
| 20260905231908 | 59 | 0.0 | 0.0 | 0.00 | 0.00 | 0.00 | 94 | 1026.1 | |
| 20260905225904 | 59 | 0.0 | 0.0 | 0.00 | 0.00 | 0.00 | 94 | 1026.0 | |
| 20260905224905 | 58 | 0.0 | 0.0 | 0.00 | 0.00 | 0.00 | 95 | 1025.7 | |
| 20260905223905 | 58 | 0.0 | 0.0 | 0.00 | 0.00 | 0.00 | 95 | 1025.7 | |
| 20260905222904 | 59 | 0.0 | 0.0 | 0.00 | 0.00 | 0.00 | 93 | 1025.6 | |
| 20260905221904 | 59 | 0.0 | 0.0 | 0.00 | 0.00 | 0.00 | 94 | 1025.5 | |
| 20260905220905 | 59 | 0.0 | 0.0 | 0.00 | 0.00 | 0.00 | 94 | 1025.5 | |
| 20260905215905 | 59 | 0.0 | 0.0 | 0.00 | 0.00 | 0.00 | 93 | 1025.4 | |
| 20260905214904 | 59 | 0.0 | 0.0 | 0.00 | 0.00 | 0.00 | 92 | 1025.3 | |
| 20260905213904 | 60 | 0.0 | 0.0 | 0.00 | 0.00 | 0.00 | 91 | 1025.2 | |
| 20260905212903 | 60 | 0.0 | 0.0 | 0.00 | 0.00 | 0.00 | 92 | 1025.2 | |
| 20260905211903 | 60 | 0.0 | 0.0 | 0.00 | 0.00 | 0.00 | 91 | 1025.1 | |
| 20260905210908 | 60 | 0.0 | 0.0 | 0.00 | 0.00 | 0.00 | 90 | 1024.9 | |
| 20260905202905 | 61 | 0.0 | 0.0 | 0.00 | 0.00 | 0.00 | 89 | 1024.5 | |
| 20260905201904 | 61 | 0.0 | 0.0 | 0.00 | 0.00 | 0.00 | 88 | 1024.4 | |
| 20260905200904 | 61 | 0.0 | 0.0 | 0.00 | 0.00 | 0.00 | 87 | 1024.3 | |
| 20260905195904 | 61 | 0.0 | 0.0 | 0.00 | 0.00 | 0.00 | 87 | 1024.1 | |
| 20260905194904 | 62 | 0.0 | 0.0 | 0.00 | 0.00 | 0.00 | 87 | 1024.1 | |
| 20260905193904 | 62 | 0.0 | 0.0 | 0.00 | 0.00 | 0.00 | 86 | 1024.0 | |
| 20260905192903 | 62 | 0.0 | 0.0 | 0.00 | 0.00 | 0.00 | 86 | 1024.0 | |
| 20260905191903 | 62 | 0.0 | 0.0 | 0.00 | 0.00 | 0.00 | 84 | 1023.7 | |
| 20260905190904 | 62 | 0.0 | 0.0 | 0.00 | 0.00 | 0.00 | 84 | 1023.6 | |
| 20260905185905 | 63 | 0.0 | 0.0 | 0.00 | 0.00 | 0.00 | 84 | 1023.5 | |
| 20260905184904 | 63 | 0.0 | 0.0 | 0.00 | 0.00 | 0.00 | 83 | 1023.3 | |
| 20260905183905 | 63 | 0.0 | 0.0 | 0.00 | 0.00 | 0.00 | 83 | 1023.5 | |
| 20260905182904 | 63 | 0.0 | 0.0 | 0.00 | 0.00 | 0.00 | 83 | 1023.2 | |
| 20260905181905 | 64 | 0.0 | 0.0 | 0.00 | 0.00 | 0.00 | 82 | 1023.0 | |
| 20260905180904 | 64 | 0.0 | 0.0 | 0.00 | 0.00 | 0.00 | 82 | 1022.9 | |
| 20260905175904 | 64 | 0.0 | 0.0 | 0.00 | 0.00 | 0.00 | 81 | 1022.8 | |
| 20260905174904 | 65 | 0.0 | 0.0 | 0.00 | 0.00 | 0.00 | 82 | 1022.7 | |
| 20260905173904 | 65 | 0.0 | 0.0 | 0.00 | 0.00 | 0.00 | 81 | 1022.6 | |
| 20260905172908 | 66 | 0.0 | 0.0 | 0.00 | 0.00 | 0.00 | 79 | 1022.4 | |
| 20260905170904 | 68 | 0.0 | 0.0 | 0.00 | 0.00 | 0.00 | 73 | 1022.1 | |
| 20260905165904 | 70 | 0.0 | 0.0 | 0.00 | 0.00 | 0.00 | 74 | 1022.4 | |
| 20260905164904 | 68 | 0.0 | 0.0 | 0.00 | 0.00 | 0.00 | 78 | 1022.4 | |
| 20260905163905 | 67 | 0.0 | 0.0 | 0.00 | 0.00 | 0.00 | 79 | 1022.1 | |
| 20260905162908 | 65 | 0.0 | 0.0 | 0.00 | 0.00 | 0.00 | 80 | 1021.8 | |
| 20260905160909 | 66 | 0.0 | 0.0 | 0.00 | 0.00 | 0.00 | 80 | 1021.5 | |
| 20260905154909 | 66 | 0.0 | 0.0 | 0.00 | 0.00 | 0.00 | 81 | 1021.2 | |
| 20260905151905 | 66 | 0.0 | 0.0 | 0.00 | 0.00 | 0.00 | 86 | 1021.3 | |
| 20260905150904 | 65 | 0.0 | 0.0 | 0.00 | 0.00 | 0.00 | 84 | 1020.8 | |
| 20260905145903 | 66 | 0.0 | 0.0 | 0.00 | 0.00 | 0.00 | 82 | 1020.6 | |
| 20260905144908 | 66 | 0.0 | 0.0 | 0.00 | 0.00 | 0.00 | 80 | 1020.5 |